| time (UTC) | temp F | wind direction | speed MPH | gust MPH | rain 1hr in | rain 24hr in | rain mn in | humidity % | barometer mb |
| 20260509124015 | 67 | 0.0 | 0.0 | 0.00 | 0.05 | 0.00 | 88 | 1010.7 | |
| 20260509123015 | 66 | 0.0 | 0.0 | 0.00 | 0.05 | 0.00 | 87 | 1010.5 | |
| 20260509122016 | 66 | 0.0 | 3.0 | 0.00 | 0.05 | 0.00 | 87 | 1010.5 | |
| 20260509121016 | 66 | 0.0 | 0.0 | 0.00 | 0.05 | 0.00 | 86 | 1010.4 | |
| 20260509120016 | 65 | 0.0 | 0.0 | 0.00 | 0.05 | 0.00 | 86 | 1010.4 | |
| 20260509115035 | 66 | 0.0 | 0.0 | 0.00 | 0.05 | 0.00 | 84 | 1010.4 | |
| 20260509114015 | 66 | 0.0 | 0.0 | 0.00 | 0.05 | 0.00 | 83 | 1010.1 | |
| 20260509113015 | 67 | 0.0 | 0.0 | 0.00 | 0.05 | 0.00 | 83 | 1009.9 | |
| 20260509112015 | 67 | 0.0 | 1.0 | 0.00 | 0.05 | 0.00 | 82 | 1009.9 | |
| 20260509111015 | 67 | 0.0 | 0.0 | 0.00 | 0.05 | 0.00 | 83 | 1009.9 | |
| 20260509110015 | 68 | 0.0 | 0.0 | 0.00 | 0.05 | 0.00 | 84 | 1009.9 | |
| 20260509105016 | 68 | 0.0 | 3.0 | 0.00 | 0.05 | 0.00 | 86 | 1009.8 | |
| 20260509104015 | 68 | 293 | 3.0 | 11.0 | 0.00 | 0.05 | 0.00 | 87 | 1009.7 |
| 20260509103015 | 70 | 270 | 5.0 | 15.0 | 0.00 | 0.05 | 0.00 | 91 | 1009.7 |
| 20260509102015 | 71 | 293 | 2.0 | 7.0 | 0.00 | 0.05 | 0.00 | 92 | 1009.7 |
| 20260509101016 | 71 | 293 | 7.0 | 12.0 | 0.00 | 0.05 | 0.00 | 92 | 1009.6 |
| 20260509100015 | 71 | 293 | 3.0 | 10.0 | 0.00 | 0.05 | 0.00 | 93 | 1008.9 |
| 20260509095035 | 71 | 158 | 5.0 | 12.0 | 0.00 | 0.05 | 0.00 | 93 | 1007.7 |
| 20260509094035 | 71 | 135 | 10.0 | 19.0 | 0.00 | 0.05 | 0.00 | 93 | 1007.1 |
| 20260509093016 | 71 | 135 | 11.0 | 19.0 | 0.00 | 0.05 | 0.00 | 93 | 1006.8 |
| 20260509092016 | 71 | 135 | 12.0 | 23.0 | 0.00 | 0.05 | 0.00 | 93 | 1006.4 |
| 20260509091015 | 70 | 135 | 12.0 | 20.0 | 0.00 | 0.05 | 0.00 | 93 | 1006.8 |
| 20260509090015 | 70 | 135 | 9.0 | 18.0 | 0.00 | 0.05 | 0.00 | 94 | 1007.3 |
| 20260509085036 | 70 | 135 | 10.0 | 17.0 | 0.00 | 0.05 | 0.05 | 94 | 1007.5 |
| 20260509084017 | 70 | 135 | 8.0 | 15.0 | 0.00 | 0.05 | 0.05 | 94 | 1007.8 |
| 20260509083016 | 69 | 135 | 8.0 | 13.0 | 0.00 | 0.05 | 0.05 | 94 | 1008.1 |
| 20260509082016 | 69 | 135 | 7.0 | 10.0 | 0.00 | 0.05 | 0.05 | 95 | 1008.6 |
| 20260509081016 | 69 | 135 | 6.0 | 10.0 | 0.00 | 0.05 | 0.05 | 94 | 1008.8 |
| 20260509080016 | 68 | 135 | 7.0 | 10.0 | 0.00 | 0.05 | 0.05 | 94 | 1009.3 |
| 20260509075016 | 68 | 135 | 7.0 | 12.0 | 0.00 | 0.05 | 0.05 | 94 | 1009.6 |
| 20260509074016 | 68 | 158 | 3.0 | 7.0 | 0.00 | 0.05 | 0.05 | 94 | 1010.4 |
| 20260509073016 | 69 | 0.0 | 0.0 | 0.00 | 0.05 | 0.05 | 94 | 1011.0 | |
| 20260509072016 | 69 | 0.0 | 1.0 | 0.00 | 0.05 | 0.05 | 94 | 1011.4 | |
| 20260509071016 | 69 | 0.0 | 0.0 | 0.00 | 0.05 | 0.05 | 94 | 1012.4 | |
| 20260509070017 | 69 | 0.0 | 3.0 | 0.00 | 0.05 | 0.05 | 94 | 1012.3 | |
| 20260509065016 | 69 | 0.0 | 0.0 | 0.00 | 0.05 | 0.05 | 94 | 1012.1 | |
| 20260509064017 | 69 | 0.0 | 2.0 | 0.00 | 0.05 | 0.05 | 94 | 1012.2 | |
| 20260509063016 | 69 | 293 | 2.0 | 6.0 | 0.00 | 0.05 | 0.05 | 94 | 1012.1 |
| 20260509062017 | 69 | 0.0 | 3.0 | 0.00 | 0.05 | 0.05 | 93 | 1011.6 | |
| 20260509061016 | 69 | 293 | 3.0 | 6.0 | 0.00 | 0.05 | 0.05 | 93 | 1011.8 |
| 20260509060017 | 68 | 293 | 1.0 | 7.0 | 0.00 | 0.05 | 0.05 | 93 | 1011.5 |
| 20260509055016 | 69 | 270 | 2.0 | 4.0 | 0.00 | 0.05 | 0.05 | 93 | 1011.2 |
| 20260509054016 | 69 | 0.0 | 0.0 | 0.00 | 0.05 | 0.05 | 92 | 1010.7 | |
| 20260509053036 | 69 | 0.0 | 0.0 | 0.00 | 0.05 | 0.05 | 92 | 1010.5 | |
| 20260509052016 | 69 | 0.0 | 0.0 | 0.00 | 0.05 | 0.05 | 92 | 1010.6 | |
| 20260509051016 | 69 | 0.0 | 0.0 | 0.00 | 0.05 | 0.05 | 92 | 1010.4 | |
| 20260509050016 | 69 | 0.0 | 0.0 | 0.00 | 0.05 | 0.05 | 91 | 1010.4 | |
| 20260509045016 | 69 | 0.0 | 0.0 | 0.00 | 0.05 | 0.05 | 91 | 1010.8 | |
| 20260509044016 | 70 | 0.0 | 0.0 | 0.00 | 0.05 | 0.05 | 91 | 1010.7 | |
| 20260509043016 | 70 | 0.0 | 0.0 | 0.00 | 0.05 | 0.05 | 91 | 1010.7 | |
| 20260509042016 | 70 | 0.0 | 2.0 | 0.00 | 0.05 | 0.05 | 91 | 1010.6 | |
| 20260509041016 | 71 | 0.0 | 3.0 | 0.00 | 0.05 | 0.05 | 91 | 1010.2 | |
| 20260509040016 | 71 | 135 | 2.0 | 7.0 | 0.00 | 0.05 | 0.05 | 90 | 1010.2 |
| 20260509035016 | 71 | 135 | 4.0 | 8.0 | 0.00 | 0.05 | 0.05 | 90 | 1009.8 |
| 20260509034016 | 71 | 113 | 4.0 | 8.0 | 0.00 | 0.05 | 0.05 | 90 | 1009.9 |
| 20260509033016 | 71 | 135 | 4.0 | 9.0 | 0.00 | 0.05 | 0.05 | 90 | 1009.7 |
| 20260509032016 | 71 | 135 | 5.0 | 10.0 | 0.00 | 0.05 | 0.05 | 90 | 1009.4 |
| 20260509031016 | 71 | 135 | 7.0 | 11.0 | 0.00 | 0.05 | 0.05 | 90 | 1009.3 |
| 20260509030016 | 71 | 135 | 6.0 | 11.0 | 0.00 | 0.05 | 0.05 | 90 | 1009.0 |
| 20260509025016 | 71 | 135 | 6.0 | 9.0 | 0.00 | 0.05 | 0.05 | 90 | 1009.0 |
| 20260509024016 | 72 | 113 | 4.0 | 7.0 | 0.00 | 0.05 | 0.05 | 89 | 1009.1 |
| 20260509023016 | 72 | 113 | 4.0 | 7.0 | 0.00 | 0.05 | 0.05 | 89 | 1009.1 |
| 20260509022016 | 72 | 0.0 | 0.0 | 0.00 | 0.05 | 0.05 | 89 | 1009.1 | |
| 20260509021016 | 72 | 0.0 | 0.0 | 0.00 | 0.05 | 0.05 | 89 | 1009.1 | |
| 20260509020016 | 72 | 0.0 | 0.0 | 0.00 | 0.05 | 0.05 | 89 | 1009.2 | |
| 20260509015016 | 72 | 0.0 | 0.0 | 0.00 | 0.05 | 0.05 | 88 | 1009.0 | |
| 20260509014016 | 72 | 0.0 | 0.0 | 0.00 | 0.05 | 0.05 | 88 | 1008.9 | |
| 20260509013016 | 72 | 0.0 | 0.0 | 0.00 | 0.05 | 0.05 | 88 | 1008.9 | |
| 20260509012016 | 73 | 0.0 | 0.0 | 0.00 | 0.05 | 0.05 | 87 | 1008.8 | |
| 20260509011016 | 73 | 0.0 | 0.0 | 0.00 | 0.05 | 0.05 | 87 | 1008.5 | |
| 20260509010016 | 73 | 0.0 | 0.0 | 0.00 | 0.05 | 0.05 | 87 | 1008.2 | |
| 20260509005016 | 73 | 0.0 | 0.0 | 0.00 | 0.05 | 0.05 | 87 | 1008.1 | |
| 20260509004016 | 73 | 0.0 | 0.0 | 0.00 | 0.05 | 0.05 | 86 | 1008.1 | |
| 20260509003016 | 74 | 135 | 1.0 | 3.0 | 0.00 | 0.05 | 0.05 | 85 | 1008.3 |
| 20260509002016 | 74 | 0.0 | 0.0 | 0.00 | 0.05 | 0.05 | 85 | 1008.4 | |
| 20260509001016 | 74 | 135 | 1.0 | 4.0 | 0.00 | 0.05 | 0.05 | 84 | 1008.4 |
| 20260509000016 | 74 | 135 | 1.0 | 3.0 | 0.00 | 0.05 | 0.05 | 84 | 1008.5 |
| 20260508235016 | 74 | 135 | 3.0 | 5.0 | 0.00 | 0.05 | 0.05 | 84 | 1008.4 |
| 20260508234016 | 74 | 113 | 3.0 | 7.0 | 0.00 | 0.05 | 0.05 | 84 | 1008.5 |
| 20260508233016 | 74 | 135 | 1.0 | 4.0 | 0.00 | 0.05 | 0.05 | 84 | 1008.5 |
| 20260508232016 | 74 | 135 | 3.0 | 7.0 | 0.00 | 0.05 | 0.05 | 84 | 1008.4 |
| 20260508231016 | 73 | 135 | 3.0 | 8.0 | 0.00 | 0.05 | 0.05 | 84 | 1008.3 |
| 20260508230016 | 74 | 135 | 5.0 | 8.0 | 0.00 | 0.05 | 0.05 | 84 | 1008.4 |
| 20260508225016 | 73 | 135 | 3.0 | 6.0 | 0.00 | 0.05 | 0.05 | 84 | 1008.4 |
| 20260508224016 | 73 | 113 | 6.0 | 9.0 | 0.00 | 0.05 | 0.05 | 85 | 1008.4 |
| 20260508223036 | 72 | 113 | 6.0 | 9.0 | 0.00 | 0.05 | 0.05 | 84 | 1008.5 |
| 20260508222016 | 72 | 113 | 6.0 | 10.0 | 0.00 | 0.05 | 0.05 | 85 | 1008.7 |
| 20260508221016 | 72 | 90 | 6.0 | 10.0 | 0.00 | 0.05 | 0.05 | 85 | 1008.7 |
| 20260508220016 | 72 | 113 | 7.0 | 11.0 | 0.00 | 0.05 | 0.05 | 86 | 1008.8 |
| 20260508215016 | 71 | 90 | 8.0 | 12.0 | 0.00 | 0.05 | 0.05 | 87 | 1008.9 |
| 20260508214016 | 71 | 113 | 5.0 | 9.0 | 0.00 | 0.05 | 0.05 | 89 | 1009.1 |
| 20260508213016 | 70 | 113 | 4.0 | 7.0 | 0.00 | 0.05 | 0.05 | 90 | 1009.3 |
| 20260508212016 | 69 | 135 | 1.0 | 3.0 | 0.00 | 0.05 | 0.05 | 90 | 1009.6 |
| 20260508211016 | 68 | 0.0 | 0.0 | 0.00 | 0.05 | 0.05 | 90 | 1009.7 | |
| 20260508210036 | 68 | 0.0 | 0.0 | 0.01 | 0.05 | 0.05 | 90 | 1009.9 | |
| 20260508205016 | 67 | 0.0 | 0.0 | 0.04 | 0.05 | 0.05 | 90 | 1010.1 | |
| 20260508204016 | 67 | 0.0 | 1.0 | 0.05 | 0.05 | 0.05 | 90 | 1010.1 | |
| 20260508203016 | 66 | 0.0 | 4.0 | 0.05 | 0.05 | 0.05 | 90 | 1010.1 | |
| 20260508202036 | 66 | 113 | 2.0 | 10.0 | 0.05 | 0.05 | 0.05 | 88 | 1009.5 |
| 20260508201016 | 67 | 113 | 9.0 | 13.0 | 0.05 | 0.05 | 0.05 | 87 | 1009.6 |
| 20260508200056 | 69 | 90 | 8.0 | 13.0 | 0.04 | 0.04 | 0.04 | 82 | 1009.4 |
| 20260508195016 | 70 | 113 | 6.0 | 8.0 | 0.01 | 0.01 | 0.01 | 79 | 1011.3 |
| 20260508194016 | 71 | 0.0 | 5.0 | 0.00 | 0.00 | 0.00 | 76 | 1011.5 | |
| 20260508193016 | 72 | 0.0 | 3.0 | 0.00 | 0.00 | 0.00 | 75 | 1011.7 | |
| 20260508192016 | 72 | 135 | 2.0 | 9.0 | 0.00 | 0.00 | 0.00 | 74 | 1011.6 |
| 20260508191016 | 73 | 113 | 4.0 | 10.0 | 0.00 | 0.00 | 0.00 | 76 | 1011.3 |
| 20260508190016 | 72 | 113 | 7.0 | 11.0 | 0.00 | 0.00 | 0.00 | 78 | 1011.3 |
| 20260508185016 | 70 | 135 | 8.0 | 12.0 | 0.00 | 0.00 | 0.00 | 76 | 1011.5 |
| 20260508184016 | 70 | 113 | 8.0 | 12.0 | 0.00 | 0.00 | 0.00 | 76 | 1011.6 |
| 20260508183016 | 70 | 113 | 9.0 | 12.0 | 0.00 | 0.00 | 0.00 | 75 | 1011.9 |
| 20260508182016 | 70 | 113 | 9.0 | 13.0 | 0.00 | 0.00 | 0.00 | 74 | 1012.1 |
| 20260508181016 | 71 | 135 | 7.0 | 12.0 | 0.00 | 0.00 | 0.00 | 74 | 1012.3 |
| 20260508180016 | 71 | 135 | 5.0 | 12.0 | 0.00 | 0.00 | 0.00 | 73 | 1012.4 |
| 20260508175016 | 71 | 113 | 6.0 | 11.0 | 0.00 | 0.00 | 0.00 | 73 | 1012.3 |
| 20260508174016 | 71 | 113 | 6.0 | 9.0 | 0.00 | 0.00 | 0.00 | 74 | 1012.4 |
| 20260508173016 | 71 | 113 | 6.0 | 9.0 | 0.00 | 0.00 | 0.00 | 75 | 1012.5 |
| 20260508172536 | 70 | 90 | 6.0 | 11.0 | 0.00 | 0.00 | 0.00 | 76 | 1012.5 |
| 20260508171516 | 70 | 113 | 6.0 | 11.0 | 0.00 | 0.00 | 0.00 | 76 | 1012.7 |
| 20260508170516 | 69 | 135 | 6.0 | 10.0 | 0.00 | 0.00 | 0.00 | 76 | 1013.0 |
| 20260508165516 | 69 | 113 | 5.0 | 8.0 | 0.00 | 0.00 | 0.00 | 76 | 1013.2 |
| 20260508164536 | 69 | 113 | 7.0 | 9.0 | 0.00 | 0.00 | 0.00 | 76 | 1013.1 |
| 20260508163516 | 69 | 90 | 5.0 | 8.0 | 0.00 | 0.00 | 0.00 | 77 | 1013.0 |
| 20260508162516 | 69 | 90 | 6.0 | 11.0 | 0.00 | 0.00 | 0.00 | 76 | 1013.2 |
| 20260508161536 | 68 | 90 | 5.0 | 10.0 | 0.00 | 0.00 | 0.00 | 79 | 1013.2 |
| 20260508160516 | 67 | 113 | 5.0 | 10.0 | 0.00 | 0.00 | 0.00 | 80 | 1013.4 |
| 20260508155536 | 66 | 113 | 7.0 | 10.0 | 0.00 | 0.00 | 0.00 | 80 | 1013.6 |
| 20260508154516 | 65 | 90 | 6.0 | 9.0 | 0.00 | 0.00 | 0.00 | 82 | 1013.8 |
| 20260508153516 | 65 | 90 | 6.0 | 10.0 | 0.00 | 0.00 | 0.00 | 82 | 1013.8 |
| 20260508152536 | 64 | 113 | 4.0 | 7.0 | 0.00 | 0.00 | 0.00 | 81 | 1014.1 |
| 20260508151516 | 64 | 113 | 5.0 | 8.0 | 0.00 | 0.00 | 0.00 | 81 | 1014.2 |
| 20260508150516 | 64 | 113 | 4.0 | 6.0 | 0.00 | 0.00 | 0.00 | 81 | 1014.4 |
| 20260508145516 | 64 | 135 | 4.0 | 6.0 | 0.00 | 0.00 | 0.00 | 81 | 1014.3 |
| 20260508144516 | 64 | 113 | 5.0 | 7.0 | 0.00 | 0.00 | 0.00 | 81 | 1014.4 |
| 20260508143516 | 64 | 113 | 3.0 | 7.0 | 0.00 | 0.00 | 0.00 | 81 | 1014.4 |
| 20260508142516 | 64 | 113 | 3.0 | 5.0 | 0.00 | 0.00 | 0.00 | 80 | 1014.1 |
| 20260508141536 | 64 | 135 | 2.0 | 4.0 | 0.00 | 0.00 | 0.00 | 81 | 1014.2 |
| 20260508140516 | 64 | 135 | 2.0 | 5.0 | 0.00 | 0.00 | 0.00 | 81 | 1014.3 |
| 20260508135516 | 64 | 135 | 2.0 | 4.0 | 0.00 | 0.00 | 0.00 | 81 | 1014.4 |
| 20260508134516 | 64 | 135 | 3.0 | 4.0 | 0.00 | 0.00 | 0.00 | 82 | 1014.4 |
| 20260508133516 | 64 | 113 | 4.0 | 8.0 | 0.00 | 0.00 | 0.00 | 84 | 1014.3 |
| 20260508132516 | 63 | 90 | 4.0 | 8.0 | 0.00 | 0.00 | 0.00 | 86 | 1014.4 |
| 20260508131536 | 62 | 135 | 2.0 | 4.0 | 0.00 | 0.00 | 0.00 | 88 | 1014.2 |
| 20260508130516 | 62 | 158 | 4.0 | 5.0 | 0.00 | 0.00 | 0.00 | 89 | 1014.4 |
| 20260508125536 | 61 | 203 | 1.0 | 3.0 | 0.00 | 0.00 | 0.00 | 90 | 1014.4 |